{"data":{"norad_id":67749,"intl_designator":"2026-027D","name":"2026-027D","alt_names":[],"object_type":"PAYLOAD","status":"ACTIVE","operator":null,"country":"PRC","launch_date":"2026-02-12","launch_site_code":"SCSLA","launch_vehicle":null,"mission":null,"orbit_class":"UNKNOWN","rcs_meters":null,"size_class":null,"mass_kg":null,"dimensions":null,"purposes":[],"wikipedia_slug":null,"has_3d_model":false,"image_url":null,"decayed_at":null,"tle_current":{"epoch":"2026-09-20T06:09:40.415328Z","epoch_age_seconds":110299,"freshness":"FRESH","line1":"1 67749U 26027D   26263.25671777  .00005198  00000+0  23687-3 0  9992","line2":"2 67749  97.5172  31.1883 0008513 249.2688 110.7635 15.21078552 33360","mean_motion":15.21078552,"eccentricity":0.0008513,"inclination_deg":97.5172,"raan_deg":31.1883,"arg_perigee_deg":249.2688,"mean_anomaly_deg":110.7635,"bstar":0.00023687,"rev_number":3336,"period_min":94.669667000866,"perigee_km":496.72851898158,"apogee_km":508.44363809511,"semimajor_km":6880.7230785383,"source":"CELESTRAK","updated_at":"2026-09-21T09:00:16.824874Z"}}}